Regional Weather Roundup
Issued by NWS Binghamton, NY

Home | Current Version | Previous Version | Text Only | Print | Product List | Glossary On
Versions: 1 2 3 4 5 6 7 8 9 10 11 12 13 14 15 16 17 18 19 20 21 22 23 24 25 26 27 28 29 30 31 32 33 34 35 36 37 38 39 40 41 42 43 44 45 46 47 48 49 50
000
ASUS41 KBGM 310410
RWRBGM
RWRBGM
BINGHAMTON REGIONAL WEATHER ROUNDUP
NATIONAL WEATHER SERVICE BINGHAMTON NY
1200 AM EDT SUN AUG 31 2014

Note: "fair" indicates few or no clouds below 12,000 feet with no
significant weather and/or obstructions to visibility.

* = Station(s) that does not report precipitation, such as rain,
snow, etc, also no thunder or fog.

!NYZ009-015>018-022>025-036-037-044>046-055>057-062-310500
...CENTRAL NEW YORK...

CITY           SKY/WX    TMP DP  RH WIND       PRES   REMARKS
BINGHAMTON     CLOUDY    68  62  81 S9        30.12F
CORTLAND       CLOUDY    70  64  83 S7        30.10S
DANSVILLE      CLOUDY    74  66  76 S9        30.02F
ELMIRA         CLOUDY    73  67  81 SW5       30.08F
ITHACA         PTCLDY    70  65  84 S10       30.09F
HAMILTON       CLOUDY    72  63  73 S9        30.09F
MONTICELLO     CLOUDY    66  61  82 CALM      30.19S
NORWICH        CLOUDY    70  63  78 S6        30.11F
PENN YAN       PTCLDY    73  65  75 S14G22    30.04F
ROME           MOCLDY    70  64  81 E6        30.06F
SIDNEY         CLOUDY    70  64  83 CALM      30.11F
SYRACUSE       MOCLDY    74  65  73 S10       30.00F
$$

!PAZ038>040-043-044-047-048-072-310500
...NORTHEAST PENNSYLVANIA...

CITY           SKY/WX    TMP DP  RH WIND       PRES   REMARKS
HAZLETON       CLOUDY    68  63  83 CALM      30.21R
SCRANTON       CLOUDY    72  62  71 SW7       30.14S
TOWANDA*       PTCLDY    72  66  83 CALM      30.10F
$$
&&
KEY
WCI = WIND CHILL INDEX
VSB = VISIBILITY
HX  = HEAT INDEX
$$



USA.gov is the U.S. government's official web portal to all federal, state and local government web resources and services.